Location: La Junie
(44.7428°N, 2.1773°E)
Time: 19:44:13
(UTC+00:00)

Cosmos 1634 Rocket - Pass Details

Date: 15 May 2026
Orbit: 960 x 990 km, 82.9° (Epoch: 7 June)

Event Time Altitude Azimuth Distance (km) Brightness Sun altitude
Exits shadow 22:22:33 49° 167° (SSE) 1,220 4.1 -23.3°
Maximum altitude 22:24:17 76° 96° (E) 995 3.9 -23.4°
Drops below altitude 10° 22:30:29 10° 11° (N) 2,717 7.1 -23.8°
Sets 22:33:00 0° 10° (N) 3,672 8.0 -24.0°
